User: anonymous   Login
Location: Unspecified
(0.0000°N, 0.0000°E)
Time: 19:51:19
(UTC+00:00)
Language:

Kosmos-2180 - Orbit

View from above orbital plane
View from above orbital plane
View from above satellite
View from above satellite

Ground track
Ground track

The orbit data is extracted from the following two-line orbital elements,

1 21875U 92008A   17268.96176479 +.00000026 +00000-0 +11572-4 0  9993
2 21875 082.9258 062.2390 0037244 196.4230 277.9441 13.73723642283348
Epoch (UTC): 25 September 2017 23:04:56
Eccentricity: 0.0037244
inclination: 82.9258°
perigee height: 959 km
apogee height: 1013 km
right ascension of ascending node: 62.2390°
argument of perigee: 196.4230°
revolutions per day: 13.73723642
mean anomaly at epoch: 277.9441°
orbit number at epoch: 28334

The dashed part of the orbit path shows where the satellite is in the earth's shadow,  

DLR